COSMOS 2251 DEB, 34755

Orbit data source: Space-Track

COSMOS 2251 DEB, 34755 is space debris in LEO originally from a launch on Wed, 16 Jun 1993 UTC launched from the Plesetsk Missile And Space Complex (PKMTR). The debris from Iridium 33, an American commercial communications satellite, has been tracked extensively since its accidental collision with the defunct Russian satellite Cosmos 2251 in 2009. This event, occurring at high speed in low Earth orbit (LEO), generated thousands of pieces of space debris, significantly increasing the risk of further collisions. The Iridium 33 debris cloud has impacted space traffic management and orbital debris mitigation strategies, making it a subject of ongoing study in space situational awareness.

Loading next visibility...
Identifier
34755, 1993-036ZZ
Orbit
LEO
Country
Flag of CISCIS
Related business
Manufacturer
Unknown
Mission
Spacecraft
Bus & Motor
Unknown
Mass
Unknown
Launch date (UTC)
1993-06-16 (33 years ago)
Launch vehicle
Unknown
Launch site
Plesetsk Missile And Space Complex (PKMTR)
Object type
Payload
Rocket body
Debris
Shape & HBR
Unknown shape, 0.1 m
Radar Cross Section
Medium (>0.1 m² and <1 m²)

Expand to show TLE details & history
Last TLE update: 3 days ago

TLE from 3 days ago
0 COSMOS 2251 DEB
1 34755U 93036ZZ  26206.62170235  .00000614  00000-0  59121-3 0  9999
2 34755  73.9250 288.4561 0405859 267.0563 164.1333 13.50950408855606
Epoch: 2026-07-25T14:55Z
TLE epoch observation values (Epoch: 2026-07-25T14:55:15.083Z)
Latitude
66.42681°
Longitude
162.39647°
Altitude
1,371.506 km
Speed
7.037 km/s
True Right ascension
21h 58m 09s
True Declination
66° 18' 38"
Sunlit
Object was in daylight at epoch
Visualization orbit readout
Latitude
Unknown
Longitude
Unknown
Altitude
Unknown
Speed
Unknown
Apparent Right ascension
Unknown
Apparent Declination
Unknown
Sunlit
N/A
Visualization observer readout
Local Sidereal Time
08:45:58
Azimuth
Unknown
Elevation
Unknown
Doppler factor
Unknown
Orbital elements
Apogee altitude
1,368.633 km
Perigee altitude
764.34 km
Semi-major axis
7,444.623 km
Eccentricity
0.04059
Inclination
73.925°
RAAN
288.4561°
Arg. of periapsis
267.0563°
True anomaly
165.34547°
Mean anomaly
164.1333°
Eccentric anomaly
164.74514°
Mean motion
3.37893 °/min
Orbital period
106.54 mins
BSTAR
0.00059121
Loading maneuver chart data...
Computing Atmospheric mass density...

Documentation

Showing up to 5 results
|